Weather History for Galliano, LA

Change the Weather History Date:

Thursday, March 20, 2014

  Actual Average (KAXO) Record (KAXO)
Temperature  
Mean Temperature 62 °F -  
Max Temperature 74 °F 63 °F 78 °F (2012)
Min Temperature 51 °F 58 °F 50 °F (1998)
Degree Days  
Heating Degree Days 2    
Growing Degree Days 12 (Base 50)    
Moisture  
Dew Point 56 °F    
Average Humidity 79    
Maximum Humidity 100    
Minimum Humidity 51    
Precipitation  
Precipitation 0.00 in - - ()
Sea Level Pressure  
Sea Level Pressure 30.11 in    
Wind  
Wind Speed 3 mph (NE)    
Max Wind Speed 13 mph    
Max Gust Speed 17 mph    
Visibility 9 miles    
Events      
Averages and records for this station are not official NWS values.
T = Trace of Precipitation, MM = Missing Value Source: NWS Daily Summary

Daily Weather History Graph

Daily Weather History Graph

Search for Another Location

Airport:

Trip Planner

Search our weather history database for the weather conditions in past years. The results will help you decide how hot, cold, wet, or windy it might be!

Date:

Astronomy

Mar. 20, 2014 Rise Set
Actual Time 7:04 AM CDT 7:12 PM CDT
Civil Twilight 6:41 AM CDT 7:36 PM CDT
Nautical Twilight 6:13 AM CDT 8:03 PM CDT
Astronomical Twilight 5:45 AM CDT 8:31 PM CDT
Moon 11:12 PM CDT (3/20) 9:28 AM CDT (3/20)
Length of Visible Light 12h 55m
Length of Day
12h 07m
Waning Gibbous, 84% of the Moon is Illuminated
Mar 20
Waning Gibbous
Mar 23
Last Quarter
Mar 30
New
Apr 7
First Quarter
Apr 15
Full

Hourly Weather History & Observations

Time (CDT) Temp. Dew Point Humidity Pressure Visibility Wind Dir Wind Speed Gust Speed Precip Events Conditions
12:15 AM 55.6 °F 54.5 °F 96% 30.12 in 5.0 mi Calm Calm - N/A   Clear
12:35 AM 55.9 °F 54.7 °F 96% 30.12 in 10.0 mi Calm Calm - N/A   Clear
1:15 AM 55.2 °F 54.9 °F 99% 30.11 in 2.0 mi Calm Calm - N/A   Scattered Clouds
1:35 AM 55.4 °F 54.7 °F 97% 30.11 in 4.0 mi SSW 3.5 mph - N/A   Clear
1:55 AM 54.0 °F 53.6 °F 99% 30.11 in 5.0 mi Calm Calm - N/A   Clear
2:15 AM 54.9 °F 54.5 °F 99% 30.10 in 7.0 mi SW 3.5 mph - N/A   Clear
2:35 AM 55.2 °F 54.7 °F 98% 30.09 in 5.0 mi Calm Calm - N/A   Clear
2:55 AM 54.7 °F 54.7 °F 100% 30.10 in 5.0 mi Calm Calm - N/A   Clear
3:15 AM 53.8 °F 53.8 °F 100% 30.09 in 4.0 mi Calm Calm - N/A   Clear
3:35 AM 53.8 °F 53.6 °F 99% 30.10 in 4.0 mi Calm Calm - N/A   Clear
3:55 AM 51.8 °F 51.8 °F 100% 30.09 in 0.8 mi Calm Calm - N/A   Mist
4:15 AM 51.8 °F 51.8 °F 100% 30.09 in 1.2 mi Calm Calm - N/A   Mostly Cloudy
4:35 AM 52.7 °F 52.3 °F 99% 30.09 in 7.0 mi WSW 3.5 mph - N/A   Mostly Cloudy
4:55 AM 55.8 °F 55.8 °F 100% 30.10 in 7.0 mi WSW 3.5 mph - N/A   Scattered Clouds
5:15 AM 56.3 °F 56.3 °F 100% 30.10 in 10.0 mi WSW 3.5 mph - N/A   Scattered Clouds
5:35 AM 57.9 °F 57.2 °F 97% 30.10 in 10.0 mi West 3.5 mph - N/A   Overcast
5:55 AM 60.1 °F 58.6 °F 95% 30.10 in 10.0 mi West 4.6 mph - N/A   Overcast
6:15 AM 61.7 °F 59.5 °F 93% 30.10 in 10.0 mi West 3.5 mph - N/A   Mostly Cloudy
6:35 AM 60.1 °F 58.5 °F 94% 30.11 in 10.0 mi WNW 4.6 mph - N/A   Scattered Clouds
6:55 AM 60.4 °F 59.0 °F 95% 30.11 in 10.0 mi West 3.5 mph - N/A   Mostly Cloudy
7:15 AM 60.1 °F 59.0 °F 96% 30.12 in 10.0 mi WNW 3.5 mph - N/A   Scattered Clouds
7:35 AM 59.9 °F 59.0 °F 97% 30.12 in 10.0 mi Calm Calm - N/A   Clear
7:55 AM 60.3 °F 59.4 °F 97% 30.12 in 7.0 mi WNW 3.5 mph - N/A   Clear
8:15 AM 61.7 °F 60.4 °F 96% 30.12 in 7.0 mi NW 8.1 mph - N/A   Clear
8:35 AM 63.0 °F 61.2 °F 94% 30.13 in 7.0 mi NNW 8.1 mph - N/A   Clear
8:55 AM 63.7 °F 61.0 °F 91% 30.14 in 10.0 mi NNW 6.9 mph - N/A   Clear
9:15 AM 64.9 °F 60.6 °F 86% 30.15 in 10.0 mi North 9.2 mph - N/A   Clear
9:35 AM 65.7 °F 58.5 °F 78% 30.16 in 10.0 mi North 10.4 mph - N/A   Clear
9:55 AM 66.0 °F 56.7 °F 72% 30.16 in 10.0 mi NNE 12.7 mph - N/A   Mostly Cloudy
10:15 AM 65.5 °F 56.5 °F 73% 30.17 in 10.0 mi North 12.7 mph - N/A   Overcast
10:35 AM 66.0 °F 55.8 °F 69% 30.17 in 10.0 mi NNE 9.2 mph - N/A   Overcast
10:55 AM 66.4 °F 54.7 °F 66% 30.17 in 10.0 mi North 9.2 mph - N/A   Overcast
11:15 AM 67.5 °F 53.8 °F 61% 30.17 in 10.0 mi NNE 11.5 mph - N/A   Mostly Cloudy
11:35 AM 68.2 °F 53.1 °F 58% 30.17 in 10.0 mi NE 11.5 mph 17.3 mph N/A   Mostly Cloudy
11:55 AM 68.7 °F 54.3 °F 60% 30.16 in 10.0 mi NE 9.2 mph 16.1 mph N/A   Scattered Clouds
12:15 PM 68.5 °F 52.3 °F 56% 30.15 in 10.0 mi NNE 10.4 mph 16.1 mph N/A   Clear
12:35 PM 70.0 °F 52.9 °F 55% 30.15 in 10.0 mi ENE 9.2 mph - N/A   Clear
12:55 PM 70.3 °F 54.1 °F 56% 30.14 in 10.0 mi NE 8.1 mph - N/A   Clear
1:15 PM 71.2 °F 54.9 °F 56% 30.12 in 10.0 mi NNE 6.9 mph - N/A   Clear
1:35 PM 71.6 °F 54.5 °F 55% 30.12 in 10.0 mi East 4.6 mph - N/A   Clear
1:55 PM 72.1 °F 54.3 °F 53% 30.12 in 10.0 mi North 3.5 mph - N/A   Clear
2:15 PM 72.7 °F 55.4 °F 55% 30.11 in 10.0 mi ENE 3.5 mph - N/A   Clear
2:35 PM 73.4 °F 56.7 °F 56% 30.10 in 10.0 mi East 6.9 mph - N/A   Clear
2:55 PM 73.4 °F 55.8 °F 54% 30.10 in 10.0 mi East 4.6 mph - N/A   Clear
3:15 PM 73.0 °F 55.0 °F 53% 30.09 in 10.0 mi ENE 6.9 mph - N/A   Clear
3:35 PM 73.4 °F 55.2 °F 53% 30.09 in 10.0 mi East 5.8 mph - N/A   Clear
3:55 PM 74.1 °F 56.3 °F 54% 30.09 in 10.0 mi Calm Calm - N/A   Clear
4:15 PM 72.9 °F 55.2 °F 54% 30.08 in 10.0 mi NNE 3.5 mph - N/A   Clear
4:35 PM 73.8 °F 54.9 °F 52% 30.08 in 10.0 mi North 4.6 mph - N/A   Clear
4:55 PM 73.6 °F 54.5 °F 51% 30.08 in 10.0 mi NNE 3.5 mph - N/A   Clear
5:15 PM 73.4 °F 54.3 °F 51% 30.07 in 10.0 mi ESE 5.8 mph - N/A   Clear
5:35 PM 73.4 °F 54.7 °F 52% 30.07 in 10.0 mi East 4.6 mph - N/A   Clear
5:55 PM 72.5 °F 55.2 °F 54% 30.07 in 10.0 mi ESE 4.6 mph - N/A   Clear
6:15 PM 72.3 °F 53.8 °F 52% 30.07 in 10.0 mi East 3.5 mph - N/A   Clear
6:35 PM 71.1 °F 55.4 °F 58% 30.07 in 10.0 mi SE 5.8 mph - N/A   Clear
6:55 PM 69.3 °F 56.8 °F 65% 30.07 in 10.0 mi ESE 3.5 mph - N/A   Clear
7:15 PM 67.6 °F 56.7 °F 68% 30.07 in 10.0 mi ESE 3.5 mph - N/A   Clear
7:35 PM 65.8 °F 57.2 °F 74% 30.08 in 10.0 mi East 3.5 mph - N/A   Clear
7:55 PM 65.3 °F 57.2 °F 75% 30.08 in 10.0 mi ESE 4.6 mph - N/A   Clear
8:15 PM 64.4 °F 57.2 °F 77% 30.08 in 10.0 mi East 4.6 mph - N/A   Clear
8:35 PM 62.2 °F 56.1 °F 80% 30.09 in 10.0 mi Calm Calm - N/A   Clear
8:55 PM 60.1 °F 55.6 °F 85% 30.09 in 10.0 mi SSE 3.5 mph - N/A   Clear
9:15 PM 62.1 °F 56.1 °F 81% 30.10 in 10.0 mi Calm Calm - N/A   Clear
9:35 PM 59.7 °F 55.8 °F 87% 30.11 in 10.0 mi Calm Calm - N/A   Clear
9:55 PM 59.0 °F 55.9 °F 90% 30.11 in 10.0 mi Calm Calm - N/A   Clear
10:15 PM 59.0 °F 55.9 °F 90% 30.10 in 10.0 mi Calm Calm - N/A   Clear
10:35 PM 57.4 °F 55.0 °F 92% 30.11 in 10.0 mi Calm Calm - N/A   Clear
10:55 PM 56.8 °F 55.8 °F 96% 30.10 in 10.0 mi Calm Calm - N/A   Clear
11:15 PM 57.0 °F 56.1 °F 97% 30.10 in 5.0 mi Calm Calm - N/A   Clear
11:35 PM 58.1 °F 57.2 °F 97% 30.09 in 4.0 mi Calm Calm - N/A   Clear
11:55 PM 56.1 °F 55.4 °F 97% 30.09 in 5.0 mi Calm Calm - N/A   Clear